Regional Weather Roundup
Issued by NWS Glasgow, MT

Home | Current Version | Previous Version | Text Only | Print | Product List | Glossary On
Versions: 1 2 3 4 5 6 7 8 9 10 11 12 13 14 15 16 17 18 19 20 21 22 23 24 25 26 27 28 29 30 31 32 33 34 35 36 37 38 39 40 41 42 43 44 45 46 47 48 49 50
000
ASUS45 KGGW 181415
RWRGGW
HOURLY WEATHER ROUNDUP FOR NORTHEAST MONTANA
NATIONAL WEATHER SERVICE GLASGOW MONTANA
800 AM MDT SAT APR 18 2015

NOTE: "FAIR" INDICATES FEW OR NO CLOUDS BELOW 12,000 FEET WITH NO
SIGNIFICANT WEATHER AND/OR OBSTRUCTIONS TO VISISBILITY.

NORTHEAST MONTANA


CITY           SKY/WX    TMP DP  RH WIND       PRES   REMARKS
GLASGOW        SUNNY     46  32  58 CALM      29.92S
PLENTYWOOD       N/A     46  28  49 S9          N/A
WOLF POINT     SUNNY     45  32  60 E5        29.93F
JORDAN           N/A     47  33  58 W8        29.95R
WINNETT          N/A     56  29  35 W3G14       N/A
SIDNEY         SUNNY     45  28  53 S8        29.96F
GLENDIVE       SUNNY     45  34  65 S10       29.98S
MALTA            N/A     48  36  63 W8          N/A
OPHEIM           N/A     50  30  46 W12       29.78S

FORT PECK REPORTS


CITY           SKY/WX    TMP DP  RH WIND       PRES   REMARKS
FORT PECK        N/A     47  35  63 S13         N/A
THE PINES        N/A     50  34  54 SW6         N/A

SOUTHEAST MONTANA


CITY           SKY/WX    TMP DP  RH WIND       PRES   REMARKS
BILLINGS       MOSUNNY   43  29  57 SW15      30.00R
MILES CITY     SUNNY     48  38  68 S9        29.96F
BAKER          MOSUNNY   51  42  71 S7        29.99F
LIVINGSTON     SUNNY     39  25  57 NW7       30.09R

CENTRAL MONTANA


CITY           SKY/WX    TMP DP  RH WIND       PRES   REMARKS
HAVRE          CLOUDY    44  36  73 NW21G28   30.11R
LEWISTOWN      SUNNY     48  30  49 W9        30.07R
GREAT FALLS    PTSUNNY   43  32  65 N17       30.13R
CUT BANK       SNOW      33  32  96 N23       30.21  VSB 1/2
HELENA         SUNNY     44  29  55 CALM      30.10R
BUTTE          SUNNY     30  25  81 CALM      30.17R
BOZEMAN        SUNNY     38  29  70 S3        30.12R

WESTERN MONTANA


CITY           SKY/WX    TMP DP  RH WIND       PRES   REMARKS
MISSOULA       SUNNY     39  33  79 CALM      30.17R
KALISPELL      NOT AVBL

NORTH DAKOTA


CITY           SKY/WX    TMP DP  RH WIND       PRES   REMARKS
WILLISTON      SUNNY     49  29  46 S8        29.97F
DICKINSON      SUNNY     45  31  58 S5        29.98F
MINOT          SUNNY     42  29  59 E6        30.02F
BISMARCK       MOSUNNY   45  31  58 E7        30.04F

SOUTHERN SASKATCHEWAN


CITY           SKY/WX    TMP DP  RH WIND       PRES   REMARKS
REGINA         PTSUNNY   48  34  57 SW12      29.92R
ESTEVAN        MOSUNNY   50  30  46 S13G21    29.95F
SWIFT CURRENT  PTSUNNY   45  36  70 NW22G28   30.01R



USA.gov is the U.S. government's official web portal to all federal, state and local government web resources and services.